Flag for USA

Past Weather in Fairfield Village Green, Connecticut, USA — Yesterday and Last 2 Weeks

Now
33 °F

Sunny.


Feels Like: 30 °F
Forecast: 34 / 23 °F
Wind: 3 mph from Southeast

Location: Sikorsky Memorial Airport

Current Time: Dec 12, 2019 at 4:44:08 pm

Latest Report: Dec 12, 2019 at 3:52 pm


Visibility: 10 mi

Pressure: 30.69 "Hg

Humidity: 49%

Dew Point: 16 °F

Location of Fairfield Village GreenLocation

Past Weather in Fairfield Village Green — Graph

°F

Fairfield Village Green Temperature Yesterday

Maximum temperature yesterday: 40 °F (at 12:52 am)
Minimum temperature yesterday: 30 °F (at 9:37 am)
Average temperature yesterday: 34 °F

High & Low Weather Summary for the Past Weeks

 TemperatureHumidityPressure
High56 °F (Nov 27, 4:52 pm)100% (Dec 9, 2:17 pm)30.74 "Hg (Dec 9, 2:17 pm)
Low20 °F (Dec 8, 6:52 am)22% (Nov 30, 1:52 pm)29.42 "Hg (Dec 3, 12:52 pm)
Average38 °F71%29.95 "Hg
* Reported Nov 27 2:52 pm — Dec 12 2:52 pm, Fairfield Village Green. Weather by CustomWeather, © 2019

Note: Actual official high and low records may vary slightly from our data, if they occured in-between our weather recording intervals... More about our weather records

Fairfield Village Green Weather History for the Previous 24 Hours

Scroll right to see more
 ConditionsComfort  
Time TempWeatherWind HumidityBarometerVisibility
2:52 pm
Thu, Dec 12
33 °FSunny.3 mph49%30.69 "Hg10 mi
1:52 pm34 °FSunny.6 mph46%30.69 "Hg10 mi
12:52 pm34 °FSunny.9 mph44%30.70 "Hg10 mi
11:52 am32 °FSunny.8 mph45%30.71 "Hg10 mi
10:52 am31 °FSunny.9 mph45%30.73 "Hg10 mi
9:52 am30 °FSunny.5 mph43%30.74 "Hg10 mi
8:52 am27 °FSunny.9 mph51%30.72 "Hg10 mi
7:52 am25 °FSunny.9 mph53%30.71 "Hg10 mi
6:52 am24 °FClear.7 mph60%30.69 "Hg10 mi
5:52 am24 °FClear.6 mph62%30.66 "Hg10 mi
4:52 am25 °FClear.6 mph53%30.63 "Hg10 mi
3:52 am26 °FClear.7 mph52%30.60 "Hg10 mi
2:52 am28 °FClear.7 mph53%30.57 "Hg10 mi
1:52 am29 °FClear.7 mph58%30.53 "Hg10 mi
12:52 am31 °FClear.20 mph52%30.48 "Hg10 mi
11:52 pm
Wed, Dec 11
31 °FClear.7 mph57%30.45 "Hg10 mi
10:52 pm32 °FClear.12 mph56%30.41 "Hg10 mi
9:52 pm33 °FClear.12 mph56%30.37 "Hg10 mi
8:52 pm34 °FClear.10 mph61%30.35 "Hg10 mi
7:52 pm35 °FClear.12 mph67%30.33 "Hg10 mi
6:52 pm36 °FClear.13 mph70%30.32 "Hg10 mi
5:52 pm35 °FClear.8 mph78%30.30 "Hg10 mi
4:52 pm35 °FPassing clouds.9 mph75%30.28 "Hg10 mi
4:19 pm35 °FScattered clouds.9 mph75%30.26 "Hg10 mi
Weather by CustomWeather, © 2019

See weather overview

Advertising